No particular awareness of the weather is required.    There are no Weather-warnings


Meteo18 Weather Cam more information Meteo18 Weather Cam


Thunder radar more information blitzortung!


Rain radar more information rain snow radar


Visit our other weather sites:

Template documentation
and downloads

And another site



Weather Underground History page Text

Daily Summary for February 9, 2017 Units:  Metric    English   Both
« Previous Day
Next Day »
Daily Weekly Monthly Yearly Custom
  High: Low: Average:
Temperature: 6.6 °C 0.3 °C 3.5 °C
Dew Point: 2.8 °C -1.3 °C 1.6 °C
Humidity: 97 % 67 % 88 %
Wind Speed: 17.7 km/h 0.0 km/h 6.1 km/h
Wind Gust: 22.5 km/h - -
Wind:- - SSE
Pressure: 1025.6 hPa 1018.8 hPa -
Precipitation: 0.0 mm    
Historical Graphs
 
 
Tabular Data for February 9, 2017
Time Temperature Dew Point Pressure Wind Wind Speed Wind Gust Humidity Rainfall Rate (Hourly)
00:02 3.7 °C 2.1 °C 1025.6 hPa North 8.0 km/h 11.3 km/h 89 % 0.0 mm
00:07 3.6 °C 2.0 °C 1025.3 hPa NNW 3.2 km/h 11.3 km/h 89 % 0.0 mm
00:12 3.6 °C 2.1 °C 1025.3 hPa NNE 4.8 km/h 11.3 km/h 90 % 0.0 mm
00:17 3.6 °C 2.1 °C 1025.3 hPa NNW 6.4 km/h 8.0 km/h 90 % 0.0 mm
00:22 3.7 °C 2.2 °C 1025.3 hPa NNW 9.7 km/h 12.9 km/h 90 % 0.0 mm
00:28 3.8 °C 2.3 °C 1025.3 hPa NNE 4.8 km/h 12.9 km/h 90 % 0.0 mm
00:37 3.9 °C 2.4 °C 1025.6 hPa NE 4.8 km/h 12.9 km/h 90 % 0.0 mm
00:42 3.9 °C 2.4 °C 1025.6 hPa NNE 1.6 km/h 12.9 km/h 90 % 0.0 mm
00:47 3.9 °C 2.4 °C 1025.6 hPa North 3.2 km/h 12.9 km/h 90 % 0.0 mm
00:52 3.9 °C 2.4 °C 1025.6 hPa NNW 4.8 km/h 11.3 km/h 90 % 0.0 mm
00:57 3.9 °C 2.4 °C 1025.6 hPa NE 3.2 km/h 9.7 km/h 90 % 0.0 mm
01:02 3.9 °C 2.4 °C 1025.6 hPa Calm   9.7 km/h 90 % 0.0 mm
01:07 3.9 °C 2.4 °C 1025.6 hPa North 4.8 km/h 9.7 km/h 90 % 0.0 mm
01:12 3.9 °C 2.4 °C 1025.6 hPa Calm   9.7 km/h 90 % 0.0 mm
01:17 3.9 °C 2.4 °C 1025.6 hPa NE 1.6 km/h 8.0 km/h 90 % 0.0 mm
01:22 3.9 °C 2.4 °C 1025.3 hPa NNE 4.8 km/h 8.0 km/h 90 % 0.0 mm
01:27 3.9 °C 2.4 °C 1025.3 hPa Calm   11.3 km/h 90 % 0.0 mm
01:32 3.9 °C 2.4 °C 1025.3 hPa NNW 3.2 km/h 11.3 km/h 90 % 0.0 mm
01:37 3.9 °C 2.4 °C 1025.3 hPa NNW 4.8 km/h 11.3 km/h 90 % 0.0 mm
01:42 3.9 °C 2.4 °C 1025.3 hPa NE 1.6 km/h 9.7 km/h 90 % 0.0 mm
01:47 3.9 °C 2.4 °C 1025.3 hPa Calm   9.7 km/h 90 % 0.0 mm
01:52 3.8 °C 2.3 °C 1025.3 hPa Calm   9.7 km/h 90 % 0.0 mm
01:57 3.8 °C 2.5 °C 1025.3 hPa NNW 4.8 km/h 9.7 km/h 91 % 0.0 mm
02:02 3.8 °C 2.5 °C 1025.3 hPa NNW 6.4 km/h 9.7 km/h 91 % 0.0 mm
02:07 3.8 °C 2.5 °C 1025.3 hPa NW 4.8 km/h 11.3 km/h 91 % 0.0 mm
02:17 3.8 °C 2.5 °C 1025.3 hPa North 3.2 km/h 11.3 km/h 91 % 0.0 mm
02:22 3.8 °C 2.5 °C 1025.3 hPa WNW 3.2 km/h 9.7 km/h 91 % 0.0 mm
02:27 3.8 °C 2.5 °C 1025.3 hPa North 6.4 km/h 9.7 km/h 91 % 0.0 mm
02:32 3.8 °C 2.5 °C 1025.3 hPa NNW 4.8 km/h 9.7 km/h 91 % 0.0 mm
02:37 3.7 °C 2.5 °C 1025.3 hPa NW 4.8 km/h 9.7 km/h 92 % 0.0 mm
02:42 3.7 °C 2.5 °C 1025.3 hPa NW 4.8 km/h 9.7 km/h 92 % 0.0 mm
02:47 3.7 °C 2.5 °C 1025.3 hPa North 6.4 km/h 11.3 km/h 92 % 0.0 mm
02:52 3.7 °C 2.5 °C 1025.3 hPa NNW 1.6 km/h 11.3 km/h 92 % 0.0 mm
02:57 3.7 °C 2.5 °C 1025.3 hPa North 4.8 km/h 9.7 km/h 92 % 0.0 mm
03:02 3.7 °C 2.5 °C 1025.3 hPa NNW 3.2 km/h 9.7 km/h 92 % 0.0 mm
03:07 3.7 °C 2.5 °C 1025.3 hPa WNW 1.6 km/h 11.3 km/h 92 % 0.0 mm
03:12 3.7 °C 2.5 °C 1025.3 hPa NNE 1.6 km/h 11.3 km/h 92 % 0.0 mm
03:17 3.7 °C 2.5 °C 1025.3 hPa NNW 3.2 km/h 11.3 km/h 92 % 0.0 mm
03:22 3.7 °C 2.5 °C 1025.3 hPa North 3.2 km/h 9.7 km/h 92 % 0.0 mm
03:27 3.7 °C 2.5 °C 1024.9 hPa North 4.8 km/h 9.7 km/h 92 % 0.0 mm
03:32 3.7 °C 2.5 °C 1024.9 hPa North 9.7 km/h 12.9 km/h 92 % 0.0 mm
03:37 3.7 °C 2.5 °C 1024.9 hPa NNW 4.8 km/h 14.5 km/h 92 % 0.0 mm
03:42 3.7 °C 2.5 °C 1024.9 hPa NNW 3.2 km/h 14.5 km/h 92 % 0.0 mm
03:47 3.7 °C 2.5 °C 1024.9 hPa NNW 11.3 km/h 14.5 km/h 92 % 0.0 mm
03:52 3.7 °C 2.5 °C 1024.9 hPa NNE 3.2 km/h 14.5 km/h 92 % 0.0 mm
03:57 3.7 °C 2.5 °C 1024.9 hPa NNW 12.9 km/h 16.1 km/h 92 % 0.0 mm
04:02 3.7 °C 2.5 °C 1024.9 hPa Calm   17.7 km/h 92 % 0.0 mm
04:07 3.7 °C 2.5 °C 1024.9 hPa North 9.7 km/h 17.7 km/h 92 % 0.0 mm
04:12 3.7 °C 2.5 °C 1024.6 hPa NNW 14.5 km/h 17.7 km/h 92 % 0.0 mm
04:17 3.6 °C 2.4 °C 1024.6 hPa NNW 8.0 km/h 17.7 km/h 92 % 0.0 mm
04:22 3.6 °C 2.6 °C 1024.6 hPa NNE 17.7 km/h 17.7 km/h 93 % 0.0 mm
04:27 3.6 °C 2.6 °C 1024.6 hPa NW 8.0 km/h 22.5 km/h 93 % 0.0 mm
04:32 3.6 °C 2.6 °C 1024.6 hPa North 11.3 km/h 22.5 km/h 93 % 0.0 mm
04:37 3.5 °C 2.5 °C 1024.6 hPa North 17.7 km/h 22.5 km/h 93 % 0.0 mm
04:42 3.5 °C 2.5 °C 1024.6 hPa North 9.7 km/h 20.9 km/h 93 % 0.0 mm
04:47 3.5 °C 2.5 °C 1024.6 hPa NNW 6.4 km/h 20.9 km/h 93 % 0.0 mm
04:52 3.4 °C 2.4 °C 1024.6 hPa NNW 14.5 km/h 20.9 km/h 93 % 0.0 mm
04:57 3.4 °C 2.5 °C 1024.6 hPa NNW 9.7 km/h 19.3 km/h 94 % 0.0 mm
05:02 3.3 °C 2.4 °C 1024.3 hPa NNW 6.4 km/h 19.3 km/h 94 % 0.0 mm
05:07 3.3 °C 2.4 °C 1024.3 hPa North 8.0 km/h 19.3 km/h 94 % 0.0 mm
05:12 3.3 °C 2.4 °C 1024.3 hPa NNW 4.8 km/h 19.3 km/h 94 % 0.0 mm
05:17 3.3 °C 2.4 °C 1024.3 hPa NNE 6.4 km/h 19.3 km/h 94 % 0.0 mm
05:22 3.2 °C 2.3 °C 1024.3 hPa NNW 8.0 km/h 16.1 km/h 94 % 0.0 mm
05:27 3.2 °C 2.3 °C 1024.3 hPa NNE 11.3 km/h 12.9 km/h 94 % 0.0 mm
05:32 3.2 °C 2.3 °C 1024.6 hPa NNW 8.0 km/h 20.9 km/h 94 % 0.0 mm
05:37 3.1 °C 2.4 °C 1024.6 hPa NE 4.8 km/h 20.9 km/h 95 % 0.0 mm
05:42 3.1 °C 2.4 °C 1024.6 hPa NNW 4.8 km/h 17.7 km/h 95 % 0.0 mm
05:47 3.1 °C 2.4 °C 1024.6 hPa NW 4.8 km/h 16.1 km/h 95 % 0.0 mm
05:52 3.1 °C 2.4 °C 1024.6 hPa North 4.8 km/h 12.9 km/h 95 % 0.0 mm
05:57 3.1 °C 2.4 °C 1024.6 hPa NE 9.7 km/h 12.9 km/h 95 % 0.0 mm
06:02 3.0 °C 2.3 °C 1024.6 hPa North 8.0 km/h 12.9 km/h 95 % 0.0 mm
06:07 2.9 °C 2.2 °C 1024.3 hPa North 11.3 km/h 20.9 km/h 95 % 0.0 mm
06:12 2.9 °C 2.3 °C 1024.3 hPa North 3.2 km/h 20.9 km/h 96 % 0.0 mm
06:17 2.9 °C 2.3 °C 1024.3 hPa NW 6.4 km/h 20.9 km/h 96 % 0.0 mm
06:22 2.9 °C 2.3 °C 1024.3 hPa NNW 8.0 km/h 20.9 km/h 96 % 0.0 mm
06:27 2.9 °C 2.3 °C 1024.3 hPa North 6.4 km/h 14.5 km/h 96 % 0.0 mm
06:32 2.9 °C 2.3 °C 1024.3 hPa NW 9.7 km/h 14.5 km/h 96 % 0.0 mm
06:37 2.9 °C 2.3 °C 1024.3 hPa NNW 8.0 km/h 14.5 km/h 96 % 0.0 mm
06:42 2.8 °C 2.2 °C 1024.3 hPa NE 6.4 km/h 14.5 km/h 96 % 0.0 mm
06:47 2.8 °C 2.2 °C 1024.3 hPa North 8.0 km/h 14.5 km/h 96 % 0.0 mm
06:52 2.8 °C 2.2 °C 1024.3 hPa SSE 1.6 km/h 19.3 km/h 96 % 0.0 mm
06:57 2.8 °C 2.2 °C 1024.3 hPa North 8.0 km/h 19.3 km/h 96 % 0.0 mm
07:02 2.8 °C 2.2 °C 1024.3 hPa WNW 3.2 km/h 19.3 km/h 96 % 0.0 mm
07:12 2.8 °C 2.2 °C 1024.3 hPa NNE 9.7 km/h 14.5 km/h 96 % 0.0 mm
07:17 2.8 °C 2.2 °C 1024.3 hPa NNW 11.3 km/h 16.1 km/h 96 % 0.0 mm
07:22 2.7 °C 2.1 °C 1024.3 hPa NNW 9.7 km/h 20.9 km/h 96 % 0.0 mm
07:27 2.7 °C 2.1 °C 1024.3 hPa NE 8.0 km/h 20.9 km/h 96 % 0.0 mm
07:32 2.7 °C 2.1 °C 1024.3 hPa NNW 9.7 km/h 20.9 km/h 96 % 0.0 mm
07:37 2.7 °C 2.3 °C 1024.3 hPa NNW 6.4 km/h 17.7 km/h 97 % 0.0 mm
07:42 2.7 °C 2.3 °C 1024.3 hPa NW 6.4 km/h 17.7 km/h 97 % 0.0 mm
07:47 2.7 °C 2.3 °C 1024.3 hPa NNW 8.0 km/h 19.3 km/h 97 % 0.0 mm
07:52 2.7 °C 2.3 °C 1024.3 hPa NE 11.3 km/h 22.5 km/h 97 % 0.0 mm
07:57 2.7 °C 2.3 °C 1024.3 hPa NNW 9.7 km/h 22.5 km/h 97 % 0.0 mm
08:02 2.7 °C 2.3 °C 1024.3 hPa NW 9.7 km/h 22.5 km/h 97 % 0.0 mm
08:07 2.7 °C 2.3 °C 1024.3 hPa North 16.1 km/h 16.1 km/h 97 % 0.0 mm
08:12 2.6 °C 2.2 °C 1024.3 hPa NNE 12.9 km/h 17.7 km/h 97 % 0.0 mm
08:17 2.6 °C 2.2 °C 1024.3 hPa North 11.3 km/h 17.7 km/h 97 % 0.0 mm
08:22 2.6 °C 2.2 °C 1024.3 hPa NNE 4.8 km/h 16.1 km/h 97 % 0.0 mm
08:27 2.6 °C 2.2 °C 1024.3 hPa NNE 12.9 km/h 14.5 km/h 97 % 0.0 mm
08:32 2.6 °C 2.2 °C 1024.3 hPa NNE 1.6 km/h 14.5 km/h 97 % 0.0 mm
08:37 2.6 °C 2.2 °C 1024.3 hPa NNW 6.4 km/h 19.3 km/h 97 % 0.0 mm
08:42 2.6 °C 2.2 °C 1024.3 hPa North 11.3 km/h 19.3 km/h 97 % 0.0 mm
08:47 2.6 °C 2.2 °C 1024.3 hPa NNW 9.7 km/h 17.7 km/h 97 % 0.0 mm
08:52 2.6 °C 2.2 °C 1024.3 hPa NW 8.0 km/h 17.7 km/h 97 % 0.0 mm
08:57 2.6 °C 2.2 °C 1024.3 hPa NNW 12.9 km/h 14.5 km/h 97 % 0.0 mm
09:02 2.6 °C 2.2 °C 1024.3 hPa NNE 9.7 km/h 14.5 km/h 97 % 0.0 mm
09:07 2.5 °C 2.1 °C 1024.3 hPa NNW 6.4 km/h 17.7 km/h 97 % 0.0 mm
09:12 2.6 °C 2.2 °C 1024.3 hPa North 3.2 km/h 16.1 km/h 97 % 0.0 mm
09:17 2.6 °C 2.2 °C 1024.3 hPa NNW 4.8 km/h 16.1 km/h 97 % 0.0 mm
09:22 2.6 °C 2.2 °C 1024.3 hPa North 4.8 km/h 16.1 km/h 97 % 0.0 mm
09:27 2.6 °C 2.2 °C 1024.3 hPa NE 3.2 km/h 14.5 km/h 97 % 0.0 mm
09:32 2.6 °C 2.2 °C 1024.3 hPa NNE 11.3 km/h 14.5 km/h 97 % 0.0 mm
09:37 2.6 °C 2.2 °C 1023.9 hPa NW 1.6 km/h 16.1 km/h 97 % 0.0 mm
09:42 2.6 °C 2.2 °C 1023.9 hPa NE 1.6 km/h 16.1 km/h 97 % 0.0 mm
09:47 2.6 °C 2.2 °C 1023.9 hPa NNW 3.2 km/h 16.1 km/h 97 % 0.0 mm
09:52 2.7 °C 2.3 °C 1023.9 hPa NNW 8.0 km/h 12.9 km/h 97 % 0.0 mm
09:57 2.6 °C 2.2 °C 1023.9 hPa NNE 16.1 km/h 16.1 km/h 97 % 0.0 mm
10:02 2.6 °C 2.2 °C 1023.9 hPa Calm   12.9 km/h 97 % 0.0 mm
10:07 2.7 °C 2.3 °C 1023.9 hPa NE 11.3 km/h 16.1 km/h 97 % 0.0 mm
10:12 2.7 °C 2.3 °C 1023.9 hPa NE 12.9 km/h 20.9 km/h 97 % 0.0 mm
10:17 2.7 °C 2.3 °C 1023.6 hPa North 17.7 km/h 20.9 km/h 97 % 0.0 mm
10:22 2.7 °C 2.3 °C 1023.6 hPa NE 6.4 km/h 20.9 km/h 97 % 0.0 mm
10:27 2.7 °C 2.3 °C 1023.6 hPa NNW 9.7 km/h 19.3 km/h 97 % 0.0 mm
10:32 2.7 °C 2.3 °C 1023.6 hPa NNE 9.7 km/h 19.3 km/h 97 % 0.0 mm
10:37 2.7 °C 2.3 °C 1023.6 hPa North 9.7 km/h 17.7 km/h 97 % 0.0 mm
10:42 2.7 °C 2.3 °C 1023.6 hPa Calm   19.3 km/h 97 % 0.0 mm
10:47 2.7 °C 2.3 °C 1023.6 hPa NNW 4.8 km/h 19.3 km/h 97 % 0.0 mm
10:52 2.7 °C 2.3 °C 1023.6 hPa NE 4.8 km/h 17.7 km/h 97 % 0.0 mm
10:57 2.7 °C 2.3 °C 1023.6 hPa NE 3.2 km/h 11.3 km/h 97 % 0.0 mm
11:02 2.7 °C 2.3 °C 1023.6 hPa North 6.4 km/h 12.9 km/h 97 % 0.0 mm
11:07 2.8 °C 2.4 °C 1023.6 hPa NE 8.0 km/h 12.9 km/h 97 % 0.0 mm
11:12 2.8 °C 2.4 °C 1023.6 hPa WNW 1.6 km/h 12.9 km/h 97 % 0.0 mm
11:17 2.8 °C 2.4 °C 1023.6 hPa NNE 1.6 km/h 11.3 km/h 97 % 0.0 mm
11:22 2.9 °C 2.5 °C 1023.2 hPa North 4.8 km/h 11.3 km/h 97 % 0.0 mm
11:27 2.9 °C 2.5 °C 1023.6 hPa NW 4.8 km/h 11.3 km/h 97 % 0.0 mm
11:32 3.0 °C 2.6 °C 1023.2 hPa NNW 4.8 km/h 11.3 km/h 97 % 0.0 mm
11:37 3.1 °C 2.7 °C 1023.2 hPa Calm   11.3 km/h 97 % 0.0 mm
11:42 3.2 °C 2.8 °C 1023.2 hPa NE 4.8 km/h 11.3 km/h 97 % 0.0 mm
11:47 3.2 °C 2.8 °C 1023.2 hPa NNW 8.0 km/h 12.9 km/h 97 % 0.0 mm
11:52 3.2 °C 2.6 °C 1023.2 hPa NNW 4.8 km/h 12.9 km/h 96 % 0.0 mm
11:57 3.3 °C 2.7 °C 1023.2 hPa NNE 6.4 km/h 12.9 km/h 96 % 0.0 mm
12:02 3.3 °C 2.6 °C 1023.2 hPa NNE 8.0 km/h 12.9 km/h 95 % 0.0 mm
12:07 3.5 °C 2.8 °C 1023.2 hPa North 8.0 km/h 14.5 km/h 95 % 0.0 mm
12:12 3.6 °C 2.7 °C 1023.2 hPa NNE 9.7 km/h 14.5 km/h 94 % 0.0 mm
12:17 3.6 °C 2.7 °C 1022.9 hPa North 6.4 km/h 12.9 km/h 94 % 0.0 mm
12:22 3.7 °C 2.5 °C 1022.9 hPa North 6.4 km/h 14.5 km/h 92 % 0.0 mm
12:27 3.8 °C 2.6 °C 1022.9 hPa NNE 4.8 km/h 14.5 km/h 92 % 0.0 mm
12:32 3.9 °C 2.6 °C 1022.9 hPa NE 4.8 km/h 14.5 km/h 91 % 0.0 mm
12:37 4.0 °C 2.5 °C 1022.6 hPa NNW 9.7 km/h 14.5 km/h 90 % 0.0 mm
12:47 3.9 °C 2.1 °C 1022.6 hPa NNW 4.8 km/h 17.7 km/h 88 % 0.0 mm
12:52 4.1 °C 2.1 °C 1022.6 hPa NNE 11.3 km/h 17.7 km/h 87 % 0.0 mm
12:57 4.2 °C 2.1 °C 1022.2 hPa NNE 8.0 km/h 16.1 km/h 86 % 0.0 mm
13:02 4.3 °C 2.0 °C 1022.2 hPa NNE 6.4 km/h 16.1 km/h 85 % 0.0 mm
13:07 4.4 °C 1.9 °C 1022.2 hPa North 11.3 km/h 16.1 km/h 84 % 0.0 mm
13:12 4.6 °C 2.3 °C 1022.2 hPa NNW 6.4 km/h 12.9 km/h 85 % 0.0 mm
13:17 4.6 °C 2.1 °C 1022.2 hPa NNE 11.3 km/h 12.9 km/h 84 % 0.0 mm
13:22 4.6 °C 2.0 °C 1022.2 hPa NNE 9.7 km/h 14.5 km/h 83 % 0.0 mm
13:27 4.7 °C 1.9 °C 1022.2 hPa NNE 9.7 km/h 16.1 km/h 82 % 0.0 mm
13:32 4.8 °C 2.0 °C 1021.9 hPa NW 3.2 km/h 16.1 km/h 82 % 0.0 mm
13:37 5.1 °C 2.5 °C 1021.9 hPa NNW 9.7 km/h 16.1 km/h 83 % 0.0 mm
13:42 4.9 °C 2.1 °C 1021.9 hPa North 3.2 km/h 16.1 km/h 82 % 0.0 mm
13:47 4.9 °C 2.1 °C 1021.9 hPa NE 3.2 km/h 16.1 km/h 82 % 0.0 mm
13:52 5.0 °C 2.2 °C 1021.9 hPa NNE 3.2 km/h 16.1 km/h 82 % 0.0 mm
13:57 5.4 °C 2.6 °C 1021.9 hPa NW 8.0 km/h 14.5 km/h 82 % 0.0 mm
14:02 5.4 °C 2.4 °C 1021.9 hPa North 11.3 km/h 12.9 km/h 81 % 0.0 mm
14:07 5.2 °C 1.9 °C 1021.9 hPa North 11.3 km/h 12.9 km/h 79 % 0.0 mm
14:12 5.2 °C 2.0 °C 1021.6 hPa NNE 8.0 km/h 19.3 km/h 80 % 0.0 mm
14:17 5.6 °C 2.6 °C 1021.6 hPa North 1.6 km/h 19.3 km/h 81 % 0.0 mm
14:22 5.8 °C 1.7 °C 1021.6 hPa NNE 6.4 km/h 14.5 km/h 75 % 0.0 mm
14:27 5.7 °C 2.0 °C 1021.6 hPa NE 9.7 km/h 16.1 km/h 77 % 0.0 mm
14:32 5.9 °C 2.2 °C 1021.6 hPa NNW 9.7 km/h 16.1 km/h 77 % 0.0 mm
14:37 6.1 °C 2.7 °C 1021.6 hPa NNW 6.4 km/h 16.1 km/h 79 % 0.0 mm
14:42 5.9 °C 2.2 °C 1021.2 hPa NNW 6.4 km/h 16.1 km/h 77 % 0.0 mm
14:47 5.9 °C 2.2 °C 1021.2 hPa North 16.1 km/h 16.1 km/h 77 % 0.0 mm
14:52 6.0 °C 2.1 °C 1021.2 hPa NNW 6.4 km/h 17.7 km/h 76 % 0.0 mm
14:57 6.2 °C 2.1 °C 1021.2 hPa NNW 8.0 km/h 17.7 km/h 75 % 0.0 mm
15:02 6.4 °C 1.5 °C 1021.2 hPa NE 6.4 km/h 17.7 km/h 71 % 0.0 mm
15:07 6.4 °C 2.1 °C 1021.2 hPa NNE 12.9 km/h 14.5 km/h 74 % 0.0 mm
15:12 6.3 °C 1.8 °C 1021.2 hPa NNE 4.8 km/h 17.7 km/h 73 % 0.0 mm
15:17 6.2 °C 1.9 °C 1020.9 hPa NNE 9.7 km/h 17.7 km/h 74 % 0.0 mm
15:22 6.1 °C 1.6 °C 1020.9 hPa ENE 4.8 km/h 22.5 km/h 73 % 0.0 mm
15:27 6.1 °C 1.6 °C 1020.9 hPa NNE 3.2 km/h 22.5 km/h 73 % 0.0 mm
15:32 6.4 °C 1.7 °C 1020.9 hPa North 6.4 km/h 22.5 km/h 72 % 0.0 mm
15:37 6.4 °C 1.1 °C 1020.9 hPa NNE 8.0 km/h 12.9 km/h 69 % 0.0 mm
15:42 6.4 °C 1.5 °C 1020.9 hPa ENE 8.0 km/h 16.1 km/h 71 % 0.0 mm
15:47 6.3 °C 1.2 °C 1020.9 hPa NNE 11.3 km/h 22.5 km/h 70 % 0.0 mm
15:52 6.2 °C 1.3 °C 1020.5 hPa NE 8.0 km/h 22.5 km/h 71 % 0.0 mm
15:57 6.2 °C 1.3 °C 1020.5 hPa ENE 4.8 km/h 22.5 km/h 71 % 0.0 mm
16:02 6.4 °C 1.3 °C 1020.5 hPa NNE 6.4 km/h 17.7 km/h 70 % 0.0 mm
16:07 6.4 °C 1.1 °C 1020.5 hPa NNE 4.8 km/h 14.5 km/h 69 % 0.0 mm
16:12 6.4 °C 1.1 °C 1020.5 hPa NE 11.3 km/h 17.7 km/h 69 % 0.0 mm
16:17 6.3 °C 0.6 °C 1020.5 hPa NE 16.1 km/h 17.7 km/h 67 % 0.0 mm
16:22 6.4 °C 0.9 °C 1020.5 hPa NNE 6.4 km/h 19.3 km/h 68 % 0.0 mm
16:27 6.5 °C 1.4 °C 1020.5 hPa NNE 12.9 km/h 19.3 km/h 70 % 0.0 mm
16:32 6.6 °C 1.5 °C 1020.5 hPa NE 8.0 km/h 19.3 km/h 70 % 0.0 mm
16:37 6.4 °C 1.5 °C 1020.5 hPa NNW 6.4 km/h 17.7 km/h 71 % 0.0 mm
16:42 6.3 °C 1.2 °C 1020.2 hPa NNE 9.7 km/h 19.3 km/h 70 % 0.0 mm
16:47 6.3 °C 1.2 °C 1020.2 hPa NNE 6.4 km/h 19.3 km/h 70 % 0.0 mm
16:52 6.3 °C 1.2 °C 1020.2 hPa East 4.8 km/h 19.3 km/h 70 % 0.0 mm
16:57 6.4 °C 1.5 °C 1020.2 hPa NNE 6.4 km/h 19.3 km/h 71 % 0.0 mm
17:02 6.3 °C 1.6 °C 1020.2 hPa NW 4.8 km/h 14.5 km/h 72 % 0.0 mm
17:07 6.1 °C 2.2 °C 1020.2 hPa ENE 9.7 km/h 20.9 km/h 76 % 0.0 mm
17:12 5.8 °C 2.1 °C 1020.2 hPa East 9.7 km/h 20.9 km/h 77 % 0.0 mm
17:17 5.7 °C 2.0 °C 1020.2 hPa NNE 3.2 km/h 20.9 km/h 77 % 0.0 mm
17:22 5.6 °C 2.1 °C 1020.2 hPa East 6.4 km/h 14.5 km/h 78 % 0.0 mm
17:32 5.3 °C 1.8 °C 1020.2 hPa NE 6.4 km/h 12.9 km/h 78 % 0.0 mm
17:42 5.1 °C 1.9 °C 1020.2 hPa ENE 9.7 km/h 11.3 km/h 80 % 0.0 mm
17:47 4.9 °C 1.9 °C 1020.2 hPa ENE 4.8 km/h 12.9 km/h 81 % 0.0 mm
17:52 4.7 °C 1.9 °C 1020.2 hPa NE 4.8 km/h 12.9 km/h 82 % 0.0 mm
17:57 4.6 °C 2.0 °C 1020.2 hPa ENE 4.8 km/h 14.5 km/h 83 % 0.0 mm
18:02 4.4 °C 1.8 °C 1020.2 hPa NE 3.2 km/h 17.7 km/h 83 % 0.0 mm
18:07 4.2 °C 1.7 °C 1020.2 hPa ENE 4.8 km/h 17.7 km/h 84 % 0.0 mm
18:12 4.0 °C 1.5 °C 1020.2 hPa NNE 4.8 km/h 17.7 km/h 84 % 0.0 mm
18:17 3.8 °C 1.3 °C 1020.2 hPa NE 8.0 km/h 14.5 km/h 84 % 0.0 mm
18:22 3.7 °C 1.2 °C 1020.2 hPa ENE 3.2 km/h 14.5 km/h 84 % 0.0 mm
18:27 3.5 °C 1.1 °C 1020.2 hPa NNE 1.6 km/h 14.5 km/h 84 % 0.0 mm
18:32 3.3 °C 0.9 °C 1020.2 hPa NE 3.2 km/h 14.5 km/h 84 % 0.0 mm
18:37 3.2 °C 0.8 °C 1020.2 hPa Calm   11.3 km/h 84 % 0.0 mm
18:42 3.1 °C 0.8 °C 1020.2 hPa NE 1.6 km/h 11.3 km/h 85 % 0.0 mm
18:47 3.0 °C 0.7 °C 1020.2 hPa NE 1.6 km/h 9.7 km/h 85 % 0.0 mm
18:52 2.9 °C 0.6 °C 1020.2 hPa East 1.6 km/h 8.0 km/h 85 % 0.0 mm
18:57 2.8 °C 0.5 °C 1020.2 hPa Calm   6.4 km/h 85 % 0.0 mm
19:02 2.7 °C 0.4 °C 1020.2 hPa ENE 1.6 km/h 6.4 km/h 85 % 0.0 mm
19:07 2.7 °C 0.4 °C 1020.2 hPa Calm   6.4 km/h 85 % 0.0 mm
19:12 2.6 °C 0.3 °C 1020.2 hPa Calm   9.7 km/h 85 % 0.0 mm
19:17 2.4 °C 0.3 °C 1020.2 hPa Calm   9.7 km/h 86 % 0.0 mm
19:22 2.4 °C 0.3 °C 1020.5 hPa NNE 1.6 km/h 9.7 km/h 86 % 0.0 mm
19:27 2.4 °C 0.3 °C 1020.5 hPa NE 4.8 km/h 6.4 km/h 86 % 0.0 mm
19:32 2.5 °C 0.2 °C 1020.5 hPa NNE 6.4 km/h 8.0 km/h 85 % 0.0 mm
19:37 2.5 °C 0.2 °C 1020.5 hPa North 1.6 km/h 8.0 km/h 85 % 0.0 mm
19:42 2.4 °C 0.3 °C 1020.5 hPa NE 4.8 km/h 8.0 km/h 86 % 0.0 mm
19:47 2.4 °C 0.3 °C 1020.5 hPa NNE 4.8 km/h 8.0 km/h 86 % 0.0 mm
19:52 2.3 °C 0.2 °C 1020.2 hPa NE 4.8 km/h 6.4 km/h 86 % 0.0 mm
19:57 2.4 °C 0.3 °C 1020.2 hPa NE 8.0 km/h 9.7 km/h 86 % 0.0 mm
20:02 2.4 °C 0.1 °C 1020.2 hPa NE 3.2 km/h 9.7 km/h 85 % 0.0 mm
20:07 2.4 °C 0.1 °C 1020.2 hPa NE 6.4 km/h 11.3 km/h 85 % 0.0 mm
20:12 2.4 °C 0.1 °C 1020.2 hPa NNE 8.0 km/h 11.3 km/h 85 % 0.0 mm
20:17 2.4 °C 0.1 °C 1020.2 hPa NE 4.8 km/h 11.3 km/h 85 % 0.0 mm
20:22 2.3 °C 0.0 °C 1020.2 hPa Calm   11.3 km/h 85 % 0.0 mm
20:27 2.2 °C 0.1 °C 1020.2 hPa NNE 1.6 km/h 9.7 km/h 86 % 0.0 mm
20:32 2.1 °C 0.0 °C 1019.9 hPa North 1.6 km/h 6.4 km/h 86 % 0.0 mm
20:37 2.0 °C 0.1 °C 1019.9 hPa Calm   4.8 km/h 87 % 0.0 mm
20:42 2.0 °C 0.1 °C 1019.9 hPa NNE 4.8 km/h 6.4 km/h 87 % 0.0 mm
20:47 2.1 °C 0.2 °C 1019.9 hPa NNE 6.4 km/h 6.4 km/h 87 % 0.0 mm
20:52 2.3 °C 0.2 °C 1019.9 hPa NNE 6.4 km/h 11.3 km/h 86 % 0.0 mm
20:57 2.4 °C 0.1 °C 1019.9 hPa NNE 11.3 km/h 14.5 km/h 85 % 0.0 mm
21:02 2.4 °C 0.1 °C 1019.9 hPa NNE 8.0 km/h 14.5 km/h 85 % 0.0 mm
21:07 2.4 °C 0.1 °C 1019.9 hPa NNE 9.7 km/h 14.5 km/h 85 % 0.0 mm
21:12 2.4 °C 0.1 °C 1019.9 hPa NNE 3.2 km/h 14.5 km/h 85 % 0.0 mm
21:17 2.3 °C 0.0 °C 1019.9 hPa NNE 6.4 km/h 14.5 km/h 85 % 0.0 mm
21:22 2.3 °C 0.0 °C 1019.5 hPa NNE 8.0 km/h 14.5 km/h 85 % 0.0 mm
21:27 2.2 °C -0.1 °C 1019.9 hPa NNE 6.4 km/h 12.9 km/h 85 % 0.0 mm
21:32 2.2 °C -0.1 °C 1019.5 hPa NE 6.4 km/h 12.9 km/h 85 % 0.0 mm
21:37 2.2 °C -0.1 °C 1019.5 hPa NE 8.0 km/h 12.9 km/h 85 % 0.0 mm
21:42 2.1 °C -0.2 °C 1019.5 hPa North 3.2 km/h 11.3 km/h 85 % 0.0 mm
21:47 2.0 °C -0.1 °C 1019.5 hPa NE 4.8 km/h 11.3 km/h 86 % 0.0 mm
21:52 1.9 °C -0.2 °C 1019.5 hPa NNE 3.2 km/h 11.3 km/h 86 % 0.0 mm
21:57 1.8 °C -0.3 °C 1019.5 hPa NNE 3.2 km/h 9.7 km/h 86 % 0.0 mm
22:02 1.7 °C -0.4 °C 1019.5 hPa NNE 1.6 km/h 8.0 km/h 86 % 0.0 mm
22:07 1.6 °C -0.3 °C 1019.5 hPa NNE 3.2 km/h 9.7 km/h 87 % 0.0 mm
22:12 1.5 °C -0.4 °C 1019.2 hPa NNE 6.4 km/h 9.7 km/h 87 % 0.0 mm
22:17 1.4 °C -0.5 °C 1019.5 hPa NNW 3.2 km/h 8.0 km/h 87 % 0.0 mm
22:22 1.4 °C -0.4 °C 1019.2 hPa North 8.0 km/h 9.7 km/h 88 % 0.0 mm
22:27 1.4 °C -0.5 °C 1019.2 hPa Calm   12.9 km/h 87 % 0.0 mm
22:32 1.3 °C -0.6 °C 1019.2 hPa NNE 6.4 km/h 12.9 km/h 87 % 0.0 mm
22:37 1.2 °C -0.6 °C 1019.2 hPa NNE 1.6 km/h 12.9 km/h 88 % 0.0 mm
22:42 1.1 °C -0.7 °C 1019.2 hPa North 1.6 km/h 11.3 km/h 88 % 0.0 mm
22:47 1.0 °C -0.8 °C 1019.2 hPa North 3.2 km/h 8.0 km/h 88 % 0.0 mm
22:52 0.9 °C -0.9 °C 1019.2 hPa NE 1.6 km/h 12.9 km/h 88 % 0.0 mm
22:57 0.8 °C -1.0 °C 1019.2 hPa North 1.6 km/h 12.9 km/h 88 % 0.0 mm
23:02 0.7 °C -0.9 °C 1019.2 hPa NNE 4.8 km/h 12.9 km/h 89 % 0.0 mm
23:07 0.7 °C -0.9 °C 1019.2 hPa Calm   8.0 km/h 89 % 0.0 mm
23:12 0.6 °C -1.0 °C 1019.2 hPa North 3.2 km/h 6.4 km/h 89 % 0.0 mm
23:17 0.6 °C -1.0 °C 1019.2 hPa NE 3.2 km/h 6.4 km/h 89 % 0.0 mm
23:22 0.5 °C -1.1 °C 1019.2 hPa ENE 1.6 km/h 6.4 km/h 89 % 0.0 mm
23:27 0.5 °C -1.1 °C 1019.2 hPa NNW 4.8 km/h 6.4 km/h 89 % 0.0 mm
23:32 0.4 °C -1.2 °C 1018.8 hPa NNW 4.8 km/h 6.4 km/h 89 % 0.0 mm
23:37 0.4 °C -1.2 °C 1018.8 hPa NE 3.2 km/h 6.4 km/h 89 % 0.0 mm
23:42 0.3 °C -1.1 °C 1019.2 hPa Calm   4.8 km/h 90 % 0.0 mm
23:47 0.3 °C -1.3 °C 1019.2 hPa North 1.6 km/h 4.8 km/h 89 % 0.0 mm
23:57 0.3 °C -1.3 °C 1018.8 hPa North 1.6 km/h 6.4 km/h 89 % 0.0 mm
Meteo18
Compliments of Weather Underground - 4 mb

Script developed by  Jim McMurry - jmcmurry@mwt.net Adapted for the template by  Wim van der Kuil - Leuven-Template.eu

You find our weather info also at:

European Weather Network

Weather Underground

Equipment we use:

Weather-station
Davis Vue

Weather-program
Meteohub

Weather-server
Raspberry PI 2 B+

Provider
1 and 1

Davis Vue

Meteohub

Raspberry PI 2 B+

1 and 1